This demonstration page uses our WeatherBlox Daily Observations layout. Learn more.

Hourly Observations for April 2, 2015

Temp ( °F °C ) Dew Point ( °F °C ) Humidity (%) Winds ( mph kmh ) Pressure ( in mb ) Visibility ( mi km ) Precip ( " mm )
12:15 am 00:15 Clear 56 13.4 34 1.2 44 44 NNE 24 39 29.74 1007 10 16.0934 0 0
12:35 am 00:35 Clear 55 13 33 0.8 44 44 NNE 18 30 29.74 1007 10 16.0934 0 0
12:55 am 00:55 Partly Cloudy 55 12.8 32 0.2 42 42 N 22 35 29.77 1008 10 16.0934 0 0
1:15 am 01:15 Partly Cloudy 55 12.6 29 -1.7 37 37 NNE 24 39 29.77 1008 10 16.0934 0 0
1:35 am 01:35 Mostly Cloudy 55 12.5 28 -2.3 36 36 NNE 18 30 29.77 1008 10 16.0934 0 0
1:55 am 01:55 Cloudy 53 11.9 29 -1.9 39 39 NNE 13 20 29.77 1008 10 16.0934 0 0
2:15 am 02:15 Cloudy 53 11.6 26 -3.1 36 36 N 14 22 29.8 1009 10 16.0934 0 0
2:35 am 02:35 Cloudy 53 11.9 25 -4 33 33 NNW 14 22 29.83 1010 10 16.0934 0 0
2:55 am 02:55 Cloudy 54 12.1 24 -4.5 31 31 N 17 28 29.83 1010 10 16.0934 0 0
3:15 am 03:15 Cloudy with Light Rain 51 10.4 30 -1 45 45 N 8 13 29.8 1009 10 16.0934 0 0
3:35 am 03:35 Cloudy 50 9.8 31 -0.5 49 49 N 10 17 29.8 1009 10 16.0934 0 0
3:55 am 03:55 Partly Cloudy 47 8.3 31 -0.5 54 54 N 10 17 29.8 1009 10 16.0934 0 0
4:15 am 04:15 Clear 46 7.8 31 -0.4 56 56 N 9 15 29.83 1010 10 16.0934 0 0
4:35 am 04:35 Clear 44 6.5 31 -0.5 61 61 N 9 15 29.85 1011 10 16.0934 0 0
4:55 am 04:55 Clear 45 7 30 -1 57 57 N 7 11 29.85 1011 10 16.0934 0 0
5:15 am 05:15 Clear 41 5.1 30 -1.3 64 64 NNW 6 9 29.88 1012 10 16.0934 0 0
5:35 am 05:35 Clear 42 5.8 29 -1.5 60 60 NNW 10 17 29.88 1012 10 16.0934 0 0
5:55 am 05:55 Clear 42 5.3 29 -1.6 61 61 NNW 8 13 29.88 1012 10 16.0934 0 0
6:15 am 06:15 Clear 40 4.6 28 -2.4 61 61 NNW 9 15 29.88 1012 10 16.0934 0 0
6:35 am 06:35 Clear 42 5.8 26 -3.3 52 52 N 10 17 29.88 1012 10 16.0934 0 0
6:55 am 06:55 Clear 41 5 26 -3.4 55 55 N 10 17 29.91 1013 10 16.0934 0 0
7:15 am 07:15 Clear 40 4.5 26 -3.5 56 56 N 9 15 29.91 1013 10 16.0934 0 0
7:35 am 07:35 Sunny 37 3 26 -3.6 62 62 N 7 11 29.97 1015 10 16.0934 0 0
7:55 am 07:55 Sunny 38 3.6 26 -3.1 62 62 NW 5 7 29.97 1015 10 16.0934 0 0
8:15 am 08:15 Sunny 38 3.6 28 -2.5 65 65 NNW 6 9 29.97 1015 10 16.0934 0 0
8:35 am 08:35 Sunny 41 5.2 28 -2.1 60 60 NNW 6 9 29.97 1015 10 16.0934 0 0
8:55 am 08:55 Sunny 45 7.1 29 -1.8 54 54 NNW 5 7 29.94 1014 10 16.0934 0 0
9:15 am 09:15 Sunny 48 9 28 -2.2 46 46 N 6 9 29.94 1014 10 16.0934 0 0
9:35 am 09:35 Sunny 50 10.1 28 -2.1 43 43 N 7 11 29.94 1014 10 16.0934 0 0
9:55 am 09:55 Partly Cloudy 53 11.5 27 -3 36 36 NNE 9 15 29.91 1013 10 16.0934 0 0
10:15 am 10:15 Partly Cloudy 53 11.8 28 -2.3 38 38 NE 8 13 29.91 1013 10 16.0934 0 0
10:35 am 10:35 Sunny 55 12.7 27 -2.8 34 34 NE 9 15 29.91 1013 10 16.0934 0 0
10:55 am 10:55 Sunny 56 13.6 26 -3.4 31 31 NE 8 13 29.91 1013 10 16.0934 0 0
11:15 am 11:15 Partly Cloudy 58 14.2 23 -4.9 26 26 ENE 9 15 29.91 1013 10 16.0934 0 0
11:35 am 11:35 Mostly Cloudy 56 13.6 23 -4.8 28 28 NE 8 13 29.91 1013 10 16.0934 0 0
11:55 am 11:55 Cloudy 56 13.3 23 -4.8 28 28 ENE 8 13 29.91 1013 10 16.0934 0 0
12:15 pm 12:15 Mostly Cloudy 57 14 25 -3.9 29 29 ENE 10 17 29.88 1012 10 16.0934 0 0
12:35 pm 12:35 Partly Cloudy 57 13.9 24 -4.2 28 28 E 6 9 29.91 1013 10 16.0934 0 0
12:55 pm 12:55 Partly Cloudy 59 15 24 -4.5 26 26 N 5 7 29.91 1013 10 16.0934 0 0
1:15 pm 13:15 Mostly Cloudy 60 15.5 23 -5.2 24 24 Calm 29.85 1011 10 16.0934 0 0
1:35 pm 13:35 Partly Cloudy 60 15.8 20 -6.5 21 21 E 10 17 29.85 1011 10 16.0934 0 0
1:55 pm 13:55 Partly Cloudy 60 15.3 19 -7 21 21 E 8 13 29.88 1012 10 16.0934 0 0
2:15 pm 14:15 Mostly Cloudy 59 15 18 -7.9 20 20 ENE 6 9 29.88 1012 10 16.0934 0 0
2:35 pm 14:35 Cloudy 59 15.1 19 -7 21 21 NNE 9 15 29.83 1010 10 16.0934 0 0
2:55 pm 14:55 Cloudy 58 14.5 24 -4.4 27 27 N 10 17 29.91 1013 10 16.0934 0 0
3:15 pm 15:15 Cloudy 60 15.5 24 -4.4 25 25 N 16 26 29.85 1011 10 16.0934 0 0
3:35 pm 15:35 Mostly Cloudy 59 15.1 23 -5.1 25 25 NNE 12 19 29.83 1010 10 16.0934 0 0
3:55 pm 15:55 Mostly Cloudy 59 15.2 22 -5.5 24 24 N 15 24 29.83 1010 10 16.0934 0 0
4:15 pm 16:15 Mostly Cloudy 59 14.8 23 -4.9 25 25 NNE 17 28 29.83 1010 10 16.0934 0 0
4:35 pm 16:35 Partly Cloudy 59 14.8 25 -4 27 27 N 14 22 29.83 1010 10 16.0934 0 0
4:55 pm 16:55 Partly Cloudy 57 13.9 25 -3.7 30 30 N 13 20 29.85 1011 10 16.0934 0 0
5:15 pm 17:15 Mostly Cloudy 58 14.2 26 -3.5 29 29 NE 15 24 29.85 1011 10 16.0934 0 0
5:35 pm 17:35 Mostly Cloudy 57 13.8 25 -3.7 30 30 N 14 22 29.85 1011 10 16.0934 0 0
5:55 pm 17:55 Cloudy 56 13.1 25 -4 30 30 NNE 15 24 29.88 1012 10 16.0934 0 0
6:15 pm 18:15 Cloudy 55 12.6 24 -4.2 31 31 N 18 30 29.88 1012 10 16.0934 0 0
6:35 pm 18:35 Cloudy 54 12 24 -4.6 31 31 NNE 20 31 29.88 1012 10 16.0934 0 0
6:55 pm 18:55 Cloudy 53 11.9 24 -4.6 31 31 NNE 15 24 29.88 1012 10 16.0934 0 0
7:15 pm 19:15 Cloudy 53 11.5 23 -5 31 31 NNE 17 28 29.88 1012 10 16.0934 0 0
7:35 pm 19:35 Cloudy 52 11.3 23 -4.9 32 32 NNE 13 20 29.91 1013 10 16.0934 0 0
7:55 pm 19:55 Cloudy 52 11.1 23 -5 32 32 NNE 12 19 29.91 1013 10 16.0934 0 0
8:15 pm 20:15 Cloudy 51 10.8 23 -5 33 33 NNE 15 24 29.91 1013 10 16.0934 0 0
8:35 pm 20:35 Cloudy 51 10.7 23 -5.2 33 33 N 18 30 29.94 1014 10 16.0934 0 0
8:55 pm 20:55 Cloudy 51 10.5 22 -5.6 32 32 N 21 33 29.97 1015 10 16.0934 0 0
9:15 pm 21:15 Cloudy 49 9.2 26 -3.2 42 42 N 23 37 29.97 1015 10 16.0934 0 0
9:35 pm 21:35 Cloudy with Light Rain 47 8.1 29 -1.9 50 50 N 26 43 30.03 1017 10 16.0934 0 0
9:55 pm 21:55 Cloudy with Light Rain 43 6 33 0.5 68 68 NNE 28 44 30.09 1019 10 16.0934 0 0
10:15 pm 22:15 Cloudy with Rain 40 4.6 36 2.1 84 84 N 22 35 30.12 1020 7 11.26538 0.01 0.254
10:35 pm 22:35 Cloudy with Light Rain 40 4.5 36 2.2 85 85 N 22 35 30.12 1020 7 11.26538 0.04 1.016
10:55 pm 22:55 Cloudy with Light Rain 38 3.5 36 2 90 90 N 29 46 30.12 1020 10 16.0934 0.05 1.27
11:15 pm 23:15 Cloudy with Light Rain 38 3.2 35 1.9 91 91 N 17 28 30.21 1023 10 16.0934 0 0
11:35 pm 23:35 Cloudy with Light Rain 38 3.3 35 1.6 89 89 N 18 30 30.21 1023 10 16.0934 0 0
11:55 pm 23:55 Cloudy with Rain 37 2.6 34 1.2 91 91 N 22 35 30.18 1022 5 8.0467 0.02 0.508

Powered by AerisWeather